{"data":{"norad_id":65354,"intl_designator":"2025-190D","name":"STARLINK-34785","alt_names":[],"object_type":"PAYLOAD","status":"ACTIVE","operator":null,"country":"US","launch_date":"2025-08-28","launch_site_code":"AFETR","launch_vehicle":null,"mission":null,"orbit_class":"UNKNOWN","rcs_meters":null,"size_class":null,"mass_kg":null,"dimensions":null,"purposes":["comms"],"wikipedia_slug":null,"has_3d_model":false,"image_url":null,"decayed_at":null,"tle_current":{"epoch":"2026-05-25T02:16:50.018304Z","epoch_age_seconds":60771,"freshness":"FRESH","line1":"1 65354U 25190D   26145.09502336  .00020594  00000+0  61900-3 0  9994","line2":"2 65354  53.1580 173.2538 0001192  46.7440 313.3662 15.34397992 40981","mean_motion":15.34397992,"eccentricity":0.0001192,"inclination_deg":53.158,"raan_deg":173.2538,"arg_perigee_deg":46.744,"mean_anomaly_deg":313.3662,"bstar":0.000619,"rev_number":4098,"period_min":93.847880895819,"perigee_km":461.89377954474,"apogee_km":463.52463728082,"semimajor_km":6840.8462084128,"source":"CELESTRAK","updated_at":"2026-05-25T13:38:20.765176Z"}}}